Location: downtown San Diego
(32.7310°N, 117.1990°W)
Time: 19:05:18
(UTC-07:00)

Tiangong 2 - Pass Details

Date: 12 July 2018
Orbit: 384 x 394 km, 42.8° (Epoch: 23 September)

Event Time Altitude Azimuth Distance (km) Brightness Sun altitude
Rises 21:20:22 0° 256° (WSW) 2,255 5.5 -15.2°
Reaches altitude 10° 21:22:32 10° 264° (W) 1,401 4.5 -15.6°
Maximum altitude 21:25:31 38° 335° (NNW) 597 2.5 -16.1°
Drops below altitude 10° 21:28:30 10° 46° (NE) 1,401 3.8 -16.5°
Enters shadow 21:29:43 - 52° (NE) 1,877 4.4 -16.7°
